ATLAS D R/B, 1616

Orbit data source: Space-Track

ATLAS D R/B, 1616 is space debris in LEO originally from a launch on Tue, 05 Oct 1965 UTC launched from the Air Force Western Test Range (AFWTR). Debris objects in space refer to the collection of defunct objects orbiting the Earth. Examples of debris include non-operational satellites, rocket bodies, and fragments generated from explosions, collisions, or faulty payload assembly.

Loading next visibility...
Identifier
1616, 1965-078B
Orbit
LEO
Country
Flag of USUS
Related business
Manufacturer
ABL
Mission
Spacecraft
Bus & Motor
ALTAIR, Unknown motor
Mass
70 kg wet, 70 kg dry
Launch date (UTC)
1965-10-05 (61 years ago)
Launch vehicle
Unknown
Launch site
Air Force Western Test Range (AFWTR)
Object type
Payload
Rocket body
Debris
Shape & HBR
Unknown
Radar Cross Section
Medium (>0.1 m² and <1 m²)

Expand to show TLE details & history
Last TLE update: 6 hours ago

TLE from 6 hours ago
0 ATLAS D R/B
1 01616U 65078B   26110.54503398  .00003875  00000-0  30551-3 0  9997
2 01616 144.2332 353.8413 0968472 139.1470 228.5909 13.37239138742999
Epoch: 2026-04-20T13:04Z
TLE epoch observation values (Epoch: 2026-04-20T13:04:50.935Z)
Latitude
-0.00004°
Longitude
-51.00451°
Altitude
1,634.706 km
Speed
6.809 km/s
True Right ascension
23h 35m 21s
True Declination
0° 00' 00"
Sunlit
Object was in daylight at epoch
Visualization orbit readout
Latitude
Unknown
Longitude
Unknown
Altitude
Unknown
Speed
Unknown
Apparent Right ascension
Unknown
Apparent Declination
Unknown
Sunlit
N/A
Visualization observer readout
Local Sidereal Time
01:50:08
Azimuth
Unknown
Elevation
Unknown
Doppler factor
Unknown
Orbital elements
Apogee altitude
1,848.906 km
Perigee altitude
396.077 km
Semi-major axis
7,500.628 km
Eccentricity
0.09685
Inclination
144.2332°
RAAN
353.8413°
Arg. of periapsis
139.147°
True anomaly
220.90894°
Mean anomaly
228.5909°
Eccentric anomaly
224.68859°
Mean motion
3.34116 °/min
Orbital period
107.75 mins
BSTAR
0.00030551
Loading maneuver chart data...
Computing Atmospheric mass density...
Loading historical data...
Loading historical data...
Loading historical data...
Loading historical data...
Loading historical data...
Loading historical data...
Loading historical data...
Other satellites on launch #78 in the year 1965 (1965-10-05 UTC)

Documentation

Showing up to 5 results
|